GFSFLT2_850_rhum_066.txt.gz
RH
20 16 17 20 20 24 34 44 38 30 23 26 92 100 100 100 100 100 100 100 99 100 100 100 100 100 99
24 25 28 24 29 44 50 50 39 27 27 55 95 74 94 100 100 100 100 97 98 99 100 100 100 100 100
44 37 38 53 66 59 54 42 38 44 48 57 57 54 59 100 100 100 100 100 100 100 99 100 100 100 100
39 56 80 73 63 75 74 56 65 64 49 55 56 56 59 58 61 60 60 58 62 98 100 100 100 100 100
77 88 86 85 90 81 72 81 82 72 58 62 59 58 53 56 59 58 58 57 65 100 100 100 100 99 99
97 87 83 87 76 79 94 99 100 90 78 73 68 60 57 61 62 61 60 61 98 100 100 99 99 100 100
89 80 77 68 97 99 99 97 99 82 82 75 71 66 65 64 62 60 57 60 94 100 100 100 100 99 100
50 55 81 100 100 100 88 83 85 79 85 89 67 73 76 70 66 57 58 59 66 92 100 100 100 99 100
54 66 74 74 76 82 80 90 85 83 81 94 82 86 76 73 71 70 68 68 67 74 85 97 100 100 99
57 66 69 71 76 81 85 94 96 100 87 99 88 93 94 84 80 76 69 65 64 63 68 70 90 100 100
72 71 71 73 75 78 83 88 93 94 75 100 93 91 100 96 82 76 74 69 68 65 64 66 70 79 100
76 75 78 79 80 81 83 83 89 92 82 90 97 97 98 94 89 74 77 70 70 66 65 65 70 75 96
79 80 84 86 84 82 78 84 82 78 81 83 91 94 99 99 98 86 84 68 68 68 76 79 79 75 73
85 86 87 86 82 87 86 87 84 70 73 78 87 97 95 93 98 92 77 92 71 74 81 83 83 84 84
89 91 91 87 84 86 88 90 94 88 76 72 83 89 88 90 91 78 77 78 77 80 92 93 80 80 83
92 95 94 92 88 84 91 89 90 85 82 82 87 87 81 87 90 84 84 87 83 93 98 100 91 78 81
93 94 97 96 95 91 92 93 90 87 85 89 95 99 100 100 82 98 94 87 95 94 92 95 98 77 87

GFSFLT2_850_rhum_072.txt.gz
RH
100 98 72 22 16 20 19 20 19 16 13 14 16 26 68 77 88 98 97 100 100 100 100 100 100 100 100
71 35 24 16 13 14 19 18 17 10 13 26 38 42 43 43 53 89 100 98 100 100 100 100 100 99 98
27 21 22 23 30 59 44 34 33 18 36 42 42 45 44 46 49 58 73 84 90 98 100 100 100 100 100
30 62 84 88 96 86 84 75 75 54 56 50 47 44 44 47 47 47 48 50 54 56 83 99 98 100 100
94 93 94 86 85 83 82 86 87 82 77 81 76 74 58 49 46 47 49 51 53 76 100 100 100 100 100
99 97 87 85 82 86 96 100 98 65 94 98 86 89 70 54 48 47 49 50 57 98 100 100 99 96 98
92 90 88 83 83 92 100 100 100 96 100 100 68 86 73 72 54 50 51 50 52 56 88 100 100 100 100
60 57 68 91 100 100 100 100 100 92 97 98 72 92 87 77 62 56 55 58 59 59 80 100 100 99 100
36 42 52 65 71 78 89 100 94 70 76 100 85 97 81 61 66 68 63 61 64 65 68 81 99 100 100
52 63 66 70 74 78 81 83 89 97 88 98 86 97 100 74 76 71 66 68 70 70 67 69 73 100 100
69 70 72 74 76 79 84 89 92 88 76 100 96 92 100 100 79 74 73 68 78 76 81 74 70 75 81
70 71 73 74 76 78 80 84 89 86 78 88 92 88 92 91 90 74 72 70 75 70 73 76 78 77 84
76 76 77 75 74 76 76 77 78 76 75 79 85 86 95 96 93 75 77 68 69 73 76 86 91 91 90
82 80 79 78 80 82 80 78 76 70 75 79 84 91 91 88 95 81 72 98 77 80 90 94 93 92 96
86 84 82 84 84 86 86 84 86 78 72 73 84 100 98 94 75 82 80 86 85 92 100 100 96 90 93
87 87 86 88 88 89 94 96 92 84 82 77 81 89 99 100 96 94 98 100 99 100 100 100 96 92 100
90 91 93 92 94 91 94 100 100 95 97 98 100 100 99 99 98 98 98 97 98 91 91 100 100 73 87

GFSFLT2_850_rhum_075.txt.gz
RH
84 86 97 100 97 55 22 20 18 15 14 15 12 14 24 52 74 92 97 100 100 100 100 100 100 100 100
99 100 89 28 15 16 17 16 27 16 20 14 15 37 39 43 72 76 90 98 98 100 100 100 100 100 99
44 23 20 18 24 39 51 40 39 25 31 46 44 50 44 48 48 47 49 50 70 87 92 97 98 100 100
22 25 31 48 75 81 79 74 44 31 48 54 63 66 65 61 46 48 46 48 52 61 89 96 99 100 100
34 80 88 73 84 83 75 72 55 60 73 62 86 59 49 45 46 48 56 76 92 99 100 100 100 100 100
84 63 89 86 82 77 79 64 96 61 74 58 59 53 49 48 49 54 57 60 71 96 100 100 100 100 100
80 86 80 78 78 64 81 96 88 66 86 90 57 68 58 56 57 58 60 65 56 58 69 97 100 100 100
66 42 35 54 80 84 91 79 76 68 97 98 63 76 60 57 58 56 54 56 58 59 62 90 98 100 100
30 35 42 56 65 68 68 83 99 70 74 82 76 85 66 53 52 58 64 66 66 67 71 93 100 100 100
68 65 70 68 70 75 80 86 99 92 82 96 80 88 99 62 63 65 60 65 70 74 70 94 100 100 100
66 68 71 79 83 86 89 91 93 87 75 100 92 86 97 93 64 65 67 66 67 70 69 69 72 92 100
70 73 74 72 72 74 79 83 85 81 74 86 92 92 99 91 84 69 69 70 70 70 77 84 83 82 92
71 72 74 75 73 74 76 78 79 76 74 79 90 94 99 96 88 81 84 68 66 76 83 93 98 99 92
75 77 78 76 75 80 80 81 78 69 73 78 92 100 100 100 100 82 80 100 77 78 90 97 96 90 88
82 82 82 83 83 85 85 82 83 83 80 80 90 100 100 100 96 90 88 86 84 89 100 100 100 92 78
86 86 87 89 89 87 89 94 100 100 96 88 100 100 100 95 91 86 93 98 92 95 100 100 90 76 78
87 88 88 89 92 92 95 94 97 100 100 100 100 100 98 100 92 99 96 86 91 92 100 100 100 73 79

GFSFLT2_850_rhum_081.txt.gz
RH
99 100 99 100 94 90 96 99 98 58 23 18 29 29 28 40 54 91 98 97 99 100 99 99 98 98 98
97 100 98 100 100 87 54 26 22 28 30 34 35 29 38 54 81 92 100 100 100 99 100 100 99 100 100
99 98 82 51 28 25 34 37 33 37 35 31 24 21 40 59 94 96 88 93 94 95 93 97 96 97 99
68 28 25 26 33 32 31 36 40 43 24 25 41 44 48 52 52 52 53 52 54 78 98 99 100 100 100
16 18 30 38 42 53 45 33 24 24 47 51 48 50 51 52 54 54 54 69 96 99 99 99 100 99 99
21 26 45 47 50 54 37 23 34 60 52 45 51 47 50 52 53 55 57 56 90 99 100 99 99 99 99
48 50 44 46 34 26 28 45 59 59 57 42 52 50 53 54 55 54 54 58 61 84 100 100 99 99 99
41 34 27 31 32 45 59 60 62 65 69 55 61 50 47 48 52 57 61 60 63 64 65 68 92 99 99
29 29 35 54 82 73 68 68 58 56 66 79 78 58 48 45 51 55 60 64 65 67 66 67 68 91 100
27 40 60 64 67 69 68 69 68 70 77 86 84 90 79 60 55 54 57 62 65 65 67 67 65 65 67
47 64 66 68 67 69 72 71 74 85 85 100 94 96 100 93 59 58 62 63 62 61 68 73 75 77 76
65 65 64 66 66 69 70 72 77 77 76 84 92 100 100 100 96 60 62 65 67 64 69 71 78 83 84
66 67 69 69 68 70 69 69 71 72 77 72 95 100 100 100 96 84 71 58 63 72 74 76 75 76 73
72 71 71 71 70 71 69 70 68 67 72 76 82 97 94 93 98 85 82 99 68 72 83 80 81 81 80
72 72 73 73 73 74 74 76 78 72 68 74 82 90 91 89 88 81 75 76 79 84 93 95 87 82 78
75 76 76 77 77 78 83 86 85 80 79 79 83 81 78 70 74 83 91 94 86 92 92 97 85 79 80
78 78 80 83 84 85 90 93 88 86 82 82 85 90 97 94 65 75 100 82 88 84 92 96 98 78 78

GFSFLT2_850_rhum_084.txt.gz
RH
100 99 100 100 100 98 98 98 99 97 64 38 34 30 47 77 87 92 96 98 98 100 99 99 98 98 98
99 100 98 100 97 99 97 64 35 36 42 43 48 48 27 23 33 85 98 100 100 100 99 99 99 99 99
98 100 100 99 84 44 38 39 44 42 49 42 27 16 16 28 41 51 72 60 53 52 58 89 96 97 99
94 55 74 82 59 44 42 45 46 40 28 16 29 39 44 46 48 50 50 50 51 52 73 93 98 100 100
78 50 30 41 43 41 41 37 28 16 25 41 44 48 50 50 50 52 53 54 55 69 86 99 99 100 100
16 20 27 32 35 35 31 19 18 42 44 42 46 44 46 51 55 54 54 55 55 68 78 99 100 99 100
28 34 32 30 29 26 25 29 52 53 53 42 47 48 53 54 51 50 55 58 60 72 83 91 92 96 97
29 30 26 26 30 35 53 59 59 60 56 51 52 46 46 47 47 55 57 62 65 65 64 62 64 77 90
30 32 32 35 68 65 60 61 64 63 63 65 56 44 40 48 50 53 60 62 64 67 66 64 62 62 61
25 27 35 55 58 59 62 66 68 68 69 78 66 67 54 45 47 54 58 61 63 64 64 64 66 69 68
26 39 57 61 63 64 65 67 67 65 71 82 71 84 92 63 45 51 57 53 52 57 64 71 73 75 83
51 63 64 66 66 67 68 69 68 67 74 84 80 73 81 74 64 49 59 56 51 52 63 67 73 78 79
67 68 67 68 70 69 68 68 68 70 80 83 80 76 86 82 80 65 66 58 49 56 62 69 72 70 68
69 68 70 70 71 72 71 70 68 67 82 84 83 84 81 88 90 69 68 80 61 66 75 71 75 77 77
68 71 73 74 75 77 78 78 78 74 72 79 84 86 84 86 74 71 71 70 71 72 77 72 64 65 69
73 75 76 76 76 77 83 85 83 82 82 83 81 80 70 60 65 74 78 78 77 84 86 92 73 65 70
76 77 77 76 77 78 85 89 86 86 83 85 85 89 94 81 68 82 93 84 83 80 89 95 97 68 73

GFSFLT2_850_rhum_087.txt.gz
RH
100 100 100 100 100 100 99 100 99 98 98 90 60 36 30 48 47 44 68 95 93 96 99 98 99 99 99
99 98 99 100 100 100 100 99 92 63 42 36 30 30 33 30 20 21 66 99 99 100 100 100 100 99 100
96 98 99 99 99 97 95 79 52 48 33 31 36 27 16 18 27 37 46 70 51 48 45 43 45 77 97
96 95 85 71 84 86 58 37 28 30 28 20 14 20 38 42 46 49 49 48 48 47 47 64 89 99 100
87 79 68 37 26 27 24 24 22 15 11 20 34 43 49 48 48 49 49 49 49 50 66 89 98 99 99
17 14 16 19 24 27 27 21 13 18 30 37 48 46 45 46 49 49 47 47 49 49 49 81 87 100 100
17 20 24 28 26 26 23 18 20 48 47 40 42 42 48 49 47 44 45 48 51 50 51 50 52 69 83
18 22 23 23 22 24 28 40 49 52 52 43 43 44 42 41 38 43 50 53 56 57 56 57 58 57 56
16 21 22 22 23 34 52 56 52 52 54 51 48 44 39 39 48 49 56 64 62 63 63 63 62 60 56
20 21 23 30 43 57 58 60 65 63 58 61 55 59 49 40 46 52 51 62 62 56 57 61 62 62 61
22 25 31 50 61 62 62 64 66 67 71 79 70 73 82 65 45 46 43 49 58 59 52 54 72 76 71
29 41 59 62 61 63 64 65 66 67 69 77 78 75 85 77 67 53 52 44 54 56 55 58 65 76 81
46 64 64 62 64 65 66 68 67 67 72 78 81 81 86 83 82 62 66 46 54 58 63 64 61 60 62
64 67 66 68 70 70 70 71 69 69 82 86 89 93 86 80 83 69 65 71 57 63 71 66 61 63 66
64 65 68 70 71 73 75 76 76 74 71 81 91 92 90 86 82 72 61 58 67 70 76 71 62 64 62
63 67 71 72 72 73 76 81 79 79 78 80 82 83 81 74 74 68 62 66 68 75 78 83 66 54 59
67 70 71 72 73 72 75 81 80 82 82 85 86 91 96 89 75 76 74 75 81 77 78 77 87 61 68

GFSFLT2_850_rhum_090.txt.gz
RH
98 93 89 98 99 99 98 99 100 100 99 98 95 86 52 30 26 25 25 26 46 94 95 100 99 99 98
86 93 99 99 99 99 99 99 98 98 93 59 56 45 30 27 26 19 14 18 29 58 55 56 62 94 98
90 95 96 97 98 99 99 96 88 80 54 31 26 26 23 15 12 21 28 32 36 39 40 40 40 52 96
90 93 97 96 81 78 86 69 38 24 22 19 16 13 12 23 33 38 39 39 40 40 40 41 60 96 99
89 87 80 74 54 31 24 20 20 16 11 11 18 28 34 41 43 43 44 45 46 48 49 57 87 100 99
36 23 16 17 18 21 20 16 13 12 13 30 42 43 44 45 48 47 46 47 47 46 50 58 65 71 87
15 18 20 20 21 19 16 14 14 23 36 39 43 44 46 50 44 40 42 45 47 51 51 52 53 54 68
14 17 18 18 20 18 21 24 36 48 51 47 43 42 45 40 35 36 43 48 52 54 53 54 54 53 59
15 17 19 22 18 23 34 51 49 52 54 53 45 41 39 38 40 44 46 50 49 55 56 52 47 48 51
20 22 24 26 29 39 53 55 56 55 53 57 50 48 45 45 43 54 54 49 52 49 56 56 51 44 42
21 22 24 31 44 56 58 59 58 56 62 62 54 54 59 54 41 46 50 54 56 47 53 56 56 61 56
23 26 37 56 59 59 61 60 60 60 62 67 65 63 69 70 55 52 57 58 59 48 54 62 63 64 69
29 38 57 59 60 61 61 61 62 64 66 69 71 73 79 80 80 64 67 60 59 55 58 63 63 61 56
33 46 57 58 60 62 63 65 63 68 78 82 86 86 81 80 83 71 70 78 64 54 63 63 60 62 62
35 49 57 60 64 67 67 69 69 67 69 83 92 90 86 84 81 72 75 73 65 61 66 62 54 56 59
35 46 58 64 68 72 74 74 72 71 72 78 84 88 84 74 75 76 77 74 64 64 69 71 56 52 59
24 36 59 66 71 73 75 75 72 72 72 80 86 95 95 89 72 82 84 79 76 69 72 74 74 56 59

GFSFLT2_850_rhum_093.txt.gz
RH
98 100 92 83 89 96 100 100 99 92 100 97 98 98 93 73 54 38 19 13 10 9 26 89 99 100 98
82 85 84 92 97 97 100 99 98 97 97 95 83 59 56 26 18 17 11 11 19 24 34 47 58 93 97
85 87 94 94 94 96 96 93 93 88 85 64 37 20 20 16 13 12 23 28 34 37 38 39 39 41 85
88 90 90 91 94 90 79 82 64 32 22 19 17 12 10 13 21 32 36 38 37 37 37 39 41 61 92
89 89 87 82 77 62 33 22 20 18 15 11 11 16 25 33 38 37 36 37 41 43 42 42 46 65 68
45 34 25 16 16 18 20 18 16 12 12 19 30 38 40 40 36 38 40 42 43 40 39 42 46 48 49
12 13 16 18 18 17 16 14 15 16 21 38 43 42 40 40 39 36 34 36 37 39 42 45 47 46 46
10 11 14 16 15 17 17 18 22 36 44 41 42 42 44 40 34 32 36 39 39 42 43 44 46 47 45
11 13 15 14 15 18 20 30 46 47 47 47 42 40 40 36 36 40 45 46 47 43 43 38 39 45 46
16 18 21 20 22 23 33 47 49 50 51 53 47 46 45 45 42 41 50 52 52 59 55 44 38 47 49
18 20 21 24 27 35 48 52 52 55 60 57 52 53 51 48 43 48 53 59 62 61 58 45 49 54 53
17 20 23 31 42 52 53 54 54 57 61 62 57 58 62 57 49 52 56 58 62 63 56 59 56 59 63
19 22 28 39 52 54 56 58 59 62 65 66 67 71 74 73 67 59 62 57 64 67 72 59 54 59 58
22 26 31 45 52 55 57 60 60 66 75 77 78 76 73 73 77 64 69 76 66 70 70 62 55 59 58
22 29 36 46 55 59 62 63 64 63 67 82 89 83 79 77 72 69 72 72 72 73 73 59 53 55 58
18 20 26 41 53 59 65 67 66 65 67 70 76 81 82 72 72 73 74 75 76 77 78 72 54 54 60
18 21 23 23 25 42 57 64 64 66 67 71 73 79 93 91 71 78 81 77 83 78 79 76 73 59 63

GFSFLT2_850_rhum_099.txt.gz
RH
93 100 94 95 96 94 89 84 84 89 91 90 93 91 88 90 86 81 72 64 42 20 10 9 20 46 76
96 100 99 87 82 82 85 89 90 91 94 90 88 88 84 82 80 68 28 12 9 7 7 11 18 34 51
91 84 84 85 87 87 92 88 88 86 83 86 86 82 71 37 15 10 8 7 8 15 26 31 32 31 33
87 85 86 86 90 92 87 88 88 81 77 62 28 12 10 9 7 7 9 15 27 32 31 30 32 34 35
87 86 87 89 89 85 88 81 62 24 14 12 9 8 7 8 10 14 26 31 30 31 34 35 34 33 34
88 89 86 82 78 66 42 19 23 20 12 9 8 9 11 24 29 32 30 30 32 34 34 34 36 37 36
80 63 33 16 11 12 13 13 15 20 13 11 16 25 31 34 31 31 31 31 30 31 31 35 36 32 29
12 9 8 9 10 12 12 13 15 15 14 23 39 37 36 34 31 32 31 29 29 32 33 36 39 38 41
6 7 8 9 10 11 12 15 21 30 30 40 39 37 37 34 33 32 32 33 37 38 41 42 42 42 48
8 9 10 11 12 12 13 15 21 52 39 44 39 40 37 36 36 35 35 37 37 40 46 52 52 50 52
9 10 12 12 13 15 16 18 28 42 37 42 41 43 44 40 38 40 42 45 50 56 57 56 54 54 56
11 12 12 12 14 16 18 27 37 42 43 44 48 50 52 50 44 47 49 53 57 56 58 60 60 62 63
12 11 12 13 15 18 24 36 41 44 47 50 51 55 59 61 56 49 51 50 59 63 66 64 64 64 65
12 12 14 15 16 19 28 38 42 45 49 53 56 60 63 65 64 53 56 63 60 62 66 64 63 68 70
11 12 14 15 17 19 26 34 40 43 48 53 57 61 64 66 61 54 58 58 62 64 64 65 63 66 71
12 12 14 14 16 15 14 18 24 31 40 52 60 58 56 50 46 36 40 46 53 56 64 76 65 62 78
13 13 14 15 16 16 17 18 19 21 24 29 31 37 52 39 30 37 40 42 44 51 67 75 79 63 72

GFSFLT2_850_rhum_102.txt.gz
RH
87 86 87 100 100 92 89 83 83 83 86 90 91 88 92 91 79 84 84 79 74 54 25 11 8 10 13
88 90 96 100 100 91 89 83 84 89 94 89 96 88 88 87 83 82 78 45 16 9 6 6 7 12 24
90 90 90 89 92 90 86 85 92 88 87 87 86 85 82 73 41 17 10 8 6 6 8 19 28 29 27
92 88 88 89 88 87 89 92 88 86 84 80 69 38 15 11 9 7 6 7 9 19 28 28 27 28 30
87 90 89 87 86 87 88 88 84 66 34 15 11 10 9 8 7 8 10 19 28 29 28 29 30 30 31
91 87 88 86 86 85 84 73 45 13 12 13 8 9 10 10 16 28 31 29 28 29 30 30 30 30 32
90 89 85 81 67 37 22 13 12 12 12 11 10 14 17 25 31 31 29 29 30 30 29 29 31 30 29
82 69 33 15 12 10 10 10 11 11 11 12 12 22 30 32 31 30 30 30 29 29 30 32 35 38 38
15 8 6 7 8 8 8 9 11 12 18 19 21 32 34 34 31 31 31 31 31 33 35 34 37 40 43
7 7 7 8 8 8 9 10 12 14 21 31 31 35 34 31 32 33 33 33 34 36 39 40 47 48 46
8 8 9 10 10 10 11 11 12 16 29 38 36 38 38 34 35 38 38 39 43 47 51 52 52 53 51
8 9 9 9 9 10 12 14 18 30 33 39 43 43 41 37 38 40 44 49 50 51 53 54 57 58 58
8 9 9 9 10 12 13 17 26 33 38 41 43 47 46 43 43 42 42 43 50 53 59 55 52 53 56
9 10 10 10 12 12 13 19 26 34 37 40 44 46 48 48 49 44 48 50 49 53 55 47 43 47 58
9 10 10 12 13 12 12 14 18 23 28 33 37 40 42 40 34 36 37 36 42 36 39 38 38 51 60
10 11 11 12 12 12 12 13 13 14 14 16 18 21 21 20 25 26 28 32 37 38 40 47 47 52 62
12 12 13 13 15 14 15 16 16 17 18 20 21 25 28 25 27 34 38 43 42 44 50 58 64 61 68

GFSFLT2_850_rhum_108.txt.gz
RH
99 99 91 98 90 87 92 89 92 91 91 84 85 92 91 91 89 88 87 92 85 82 79 77 60 26 8
100 99 99 100 100 98 97 90 97 96 89 87 88 89 90 92 94 95 90 87 83 81 56 16 8 6 6
99 100 100 98 99 100 93 89 92 88 91 89 94 94 94 94 88 86 84 81 58 17 8 6 6 12 24
98 99 100 100 100 99 96 93 99 94 93 94 87 86 87 85 81 65 27 11 9 7 6 9 22 25 25
96 100 99 100 98 93 93 100 95 90 94 87 81 74 60 37 17 10 8 7 7 8 19 25 25 26 28
100 100 100 97 92 90 95 96 92 86 88 81 63 22 15 12 10 9 9 12 16 27 27 27 27 28 28
100 100 96 91 92 95 92 91 91 88 60 22 14 13 11 10 11 12 23 30 28 27 28 29 27 28 28
99 96 91 94 94 96 95 94 86 65 36 18 12 11 12 16 18 26 31 30 29 30 29 28 27 29 30
96 93 95 93 93 91 74 42 25 16 14 14 12 13 18 25 33 32 33 31 30 29 29 30 31 32 33
96 95 90 74 44 19 13 15 14 13 11 15 15 20 33 33 35 35 33 31 31 31 32 34 34 34 34
40 25 14 8 8 9 9 10 10 10 12 18 20 29 36 36 35 37 35 34 35 36 37 40 41 42 43
10 10 10 10 11 11 13 12 11 12 15 26 31 35 36 36 38 36 36 38 41 42 45 47 47 48 49
11 12 14 11 12 13 14 13 12 14 15 16 23 29 34 36 37 37 40 43 44 43 46 47 49 49 40
12 14 14 11 12 13 13 13 14 15 19 25 29 31 33 34 33 32 36 37 37 40 40 36 34 27 28
13 14 12 12 13 14 14 14 15 15 18 22 26 28 26 23 20 21 23 22 26 29 26 25 29 34 39
15 13 11 13 15 15 14 15 14 14 15 15 14 16 17 19 20 21 23 25 29 30 32 33 34 42 48
14 14 13 14 16 15 16 16 15 15 16 16 16 19 20 20 24 26 27 30 34 38 41 44 42 43 48

GFSFLT2_850_rhum_111.txt.gz
RH
98 99 98 98 98 93 100 92 91 83 88 92 90 86 86 90 93 92 88 88 86 85 79 79 78 69 35
100 100 99 100 95 98 100 98 97 86 86 93 88 84 85 86 85 90 90 91 90 85 81 78 38 10 6
99 100 98 96 99 100 100 100 98 95 92 89 87 88 90 94 95 93 90 86 83 82 61 15 7 5 6
98 100 96 100 100 99 100 99 98 100 99 96 89 92 89 90 91 87 82 74 40 16 8 6 5 11 21
100 83 81 99 98 98 100 100 99 100 100 94 93 89 84 78 75 62 36 15 10 8 7 7 18 23 23
98 100 100 100 100 100 99 99 100 98 96 92 91 85 73 37 17 12 10 9 8 8 10 25 25 25 26
100 100 100 100 100 97 93 92 96 96 90 89 87 66 24 13 11 9 9 11 14 22 28 26 25 27 28
100 100 100 100 95 92 95 100 100 98 97 84 50 18 13 12 13 13 14 25 31 28 27 27 28 28 27
98 100 100 99 96 93 95 96 97 96 80 56 22 13 12 14 19 18 26 32 32 31 29 29 30 28 27
96 98 100 98 96 95 94 88 68 44 22 19 16 13 15 17 24 31 33 33 32 30 31 32 31 30 32
82 72 69 70 60 39 26 21 19 16 12 12 16 14 17 36 28 32 33 34 33 32 34 35 35 35 35
23 15 13 13 13 13 13 13 12 13 12 12 22 22 23 33 34 34 34 35 36 36 38 37 37 39 41
13 14 15 14 14 15 16 16 16 14 12 12 16 35 38 39 36 35 35 36 38 39 40 39 41 41 41
14 17 17 16 16 17 17 15 14 14 14 14 15 18 25 32 34 37 37 42 35 36 33 34 34 36 31
16 17 20 20 17 17 16 14 13 12 13 16 21 25 28 29 27 28 30 28 29 32 25 24 27 25 27
20 18 22 20 20 20 18 16 15 13 13 15 19 22 22 22 19 18 18 18 20 21 23 24 26 33 36
23 20 20 22 22 19 19 16 14 13 14 15 15 15 17 19 22 25 26 26 26 26 28 30 29 34 41

GFSFLT2_850_rhum_114.txt.gz
RH
96 100 98 99 98 93 100 100 100 97 91 82 78 94 92 86 90 95 98 99 91 87 85 82 78 75 71
96 93 84 97 100 99 99 99 98 98 97 85 83 96 90 83 82 81 86 91 87 88 89 83 80 68 15
99 100 99 99 98 99 99 100 100 100 98 89 86 89 84 85 88 92 95 93 93 88 84 81 63 13 6
99 99 92 97 100 100 100 100 100 100 98 95 88 94 92 91 94 95 96 91 85 79 62 30 9 6 5
100 99 100 99 95 97 100 100 100 99 100 99 96 97 92 88 87 83 84 83 64 30 11 7 6 6 18
93 98 99 98 100 100 100 100 100 98 98 99 99 97 92 84 76 58 29 16 13 9 7 6 9 20 22
99 100 100 100 100 100 100 100 100 100 99 93 98 96 91 82 57 21 12 11 11 10 8 12 25 24 24
99 100 100 100 100 100 100 100 100 100 100 98 94 86 68 28 14 13 12 12 15 18 25 28 25 24 26
95 96 97 99 100 100 99 100 100 100 100 100 96 77 35 17 16 16 17 17 28 33 29 27 25 26 26
96 96 95 99 100 100 100 100 100 100 99 93 70 33 16 15 16 23 22 26 34 33 29 27 26 25 26
93 83 80 84 90 95 94 91 89 72 40 14 17 18 16 22 21 24 28 34 34 32 29 29 29 29 30
66 31 20 17 15 15 15 16 16 16 20 23 18 15 17 18 33 26 28 32 33 33 31 31 32 33 35
13 14 14 16 17 16 16 16 16 16 16 16 17 19 26 23 24 31 33 32 33 33 33 34 35 37 39
15 16 16 17 21 20 21 20 20 18 18 17 16 20 35 37 36 35 33 36 32 33 33 33 36 37 37
17 18 19 19 24 24 22 20 21 20 19 18 20 19 18 18 23 28 31 31 34 32 28 26 27 27 27
23 24 23 24 29 26 23 23 24 20 23 19 18 19 20 22 23 24 22 20 20 20 19 20 21 24 25
20 21 23 23 27 25 25 26 23 22 22 18 16 18 19 18 19 24 25 24 24 24 25 26 26 31 33

GFSFLT2_850_rhum_117.txt.gz
RH
90 84 86 91 90 95 90 100 95 98 99 100 93 88 92 90 93 99 100 99 100 100 94 85 81 78 76
58 64 76 100 96 92 90 94 100 96 96 95 95 90 89 95 89 90 86 85 98 92 88 88 86 80 76
77 95 99 98 96 96 99 94 100 100 100 100 100 92 93 90 85 85 88 89 85 85 92 90 85 80 48
84 99 99 97 98 85 97 99 100 100 100 100 99 97 95 93 91 93 94 95 95 92 88 83 78 46 10
78 91 94 95 92 98 100 100 100 100 100 100 100 100 99 98 93 95 94 93 92 86 82 56 19 9 6
82 85 92 100 100 100 100 100 100 99 100 100 100 100 99 98 95 88 79 78 76 68 45 18 9 7 9
83 98 99 100 100 100 100 100 100 100 100 100 100 100 100 98 92 84 72 43 19 14 10 8 8 14 25
89 94 100 100 100 100 100 100 100 100 100 100 96 96 98 96 92 85 41 13 11 11 12 10 13 27 28
92 94 94 95 96 99 100 100 100 100 100 100 99 98 94 85 62 28 18 14 12 16 19 22 32 32 27
96 96 93 93 94 99 100 100 100 100 99 100 100 99 87 68 36 21 22 16 17 27 35 33 32 28 26
96 91 82 72 74 88 97 99 100 100 98 87 76 76 59 22 18 20 23 26 29 36 35 31 29 28 30
76 60 46 29 18 16 16 21 35 50 54 63 42 20 16 20 20 24 24 28 38 39 36 33 32 31 31
20 15 13 12 13 14 14 15 16 18 19 20 25 27 21 22 24 28 33 28 35 37 36 34 33 32 33
21 17 16 15 15 17 18 18 19 21 22 22 21 21 23 28 34 31 34 39 34 34 35 36 34 34 35
24 19 18 18 18 20 20 19 20 20 22 21 22 22 22 22 34 37 38 36 34 34 34 32 29 28 27
26 21 21 21 20 22 23 20 21 22 22 22 22 20 19 20 20 21 25 29 31 32 30 26 23 23 22
34 22 20 22 23 22 24 20 20 24 25 24 21 18 21 22 22 23 24 26 26 22 22 23 25 27 29

GFSFLT2_850_rhum_120.txt.gz
RH
94 93 90 87 85 88 97 92 96 88 100 97 99 100 99 100 99 100 100 100 90 99 98 99 93 83 80
51 46 49 52 66 77 99 98 100 98 99 100 100 100 100 100 93 96 100 99 100 100 100 93 90 88 83
50 52 56 63 86 98 98 91 90 100 100 99 100 100 100 98 92 97 95 92 94 89 96 95 92 88 83
54 57 61 75 91 95 97 95 98 100 100 100 100 100 100 99 97 98 93 95 94 98 97 97 93 87 80
61 66 76 86 92 93 99 100 100 100 100 99 99 100 100 100 98 100 95 97 98 99 100 93 86 76 49
67 69 75 87 97 100 100 99 99 99 100 99 100 99 100 99 100 96 97 94 95 94 90 85 71 33 12
72 73 72 87 99 99 100 100 100 99 100 100 100 100 100 100 100 99 95 87 79 70 51 34 29 17 9
77 77 80 88 97 100 100 100 99 100 100 100 100 99 100 100 100 100 96 88 77 38 17 17 14 11 12
83 84 87 91 93 94 98 100 99 99 100 100 100 100 100 100 100 97 95 83 31 15 13 16 19 17 29
99 93 90 90 90 91 96 100 100 100 100 100 99 100 98 98 97 87 68 37 20 16 16 22 24 33 39
99 94 92 84 70 63 74 96 100 100 99 100 99 100 100 90 41 31 42 29 23 21 22 30 38 42 40
88 79 65 51 36 24 18 19 30 62 88 96 95 92 37 29 31 21 22 25 31 32 30 36 39 36 34
78 42 23 16 14 13 14 14 14 15 16 20 26 32 37 30 24 22 23 32 32 34 35 38 41 39 36
55 30 20 16 15 15 14 16 18 18 17 18 20 21 22 26 25 29 28 38 29 31 37 40 41 39 36
56 32 23 18 18 18 17 20 22 21 19 18 18 20 21 24 25 30 35 28 37 39 38 38 39 39 38
82 45 28 21 21 22 22 23 22 22 23 22 21 21 19 18 20 20 32 38 36 37 36 36 34 33 30
88 81 45 26 22 23 24 24 23 23 25 26 26 24 23 20 20 21 22 24 25 28 30 30 28 27 24

GFSFLT2_850_rhum_123.txt.gz
RH
93 80 81 81 84 78 85 83 99 100 98 100 99 100 97 99 100 99 99 94 96 99 98 97 100 95 86
51 66 54 46 46 52 56 72 90 99 99 100 100 100 100 99 100 100 100 99 97 95 98 99 100 98 92
50 50 48 48 48 54 65 83 100 100 100 98 99 100 100 100 100 100 96 100 100 100 100 98 98 94 93
60 57 56 56 56 72 74 86 96 100 99 100 99 99 100 99 100 100 100 98 96 93 93 99 98 96 93
62 63 62 61 67 94 99 98 87 96 99 99 100 100 100 99 100 100 100 99 97 98 91 97 100 97 90
67 68 67 76 74 97 98 98 98 98 99 100 100 99 100 99 100 100 98 97 98 100 94 90 94 89 81
76 78 72 73 76 80 94 97 99 100 100 98 100 99 100 100 100 100 100 98 98 95 87 86 86 82 65
80 84 83 81 84 81 83 86 96 97 100 98 100 99 100 100 100 100 99 99 98 96 84 64 38 23 18
97 96 94 86 85 83 82 87 98 97 99 99 98 99 100 100 100 99 100 100 97 98 79 34 16 16 16
90 96 93 89 85 81 79 85 100 98 99 100 99 100 99 98 98 99 100 100 100 85 40 22 20 23 21
84 89 91 89 87 76 66 50 54 92 99 100 99 100 100 99 81 59 54 78 72 50 27 25 26 33 26
87 89 80 61 46 31 25 19 17 17 27 79 100 100 99 97 60 39 26 26 28 33 32 32 31 34 45
90 89 81 60 31 18 13 13 14 13 14 18 22 34 54 56 47 32 22 19 27 32 34 35 44 45 44
87 88 71 44 24 16 14 16 16 15 18 20 21 23 25 29 30 27 25 28 31 38 40 39 51 47 41
86 84 84 60 30 19 18 20 19 20 20 20 22 23 25 28 25 24 24 24 28 40 36 33 39 42 40
90 88 86 85 46 26 22 23 20 23 25 23 23 25 22 20 19 20 23 23 32 30 38 42 37 36 36
96 95 90 90 85 47 28 24 22 24 26 27 26 26 29 24 21 22 20 20 20 24 32 36 32 32 34

GFSFLT2_850_rhum_126.txt.gz
RH
92 82 67 54 55 54 54 57 57 64 96 93 96 94 96 100 95 100 96 99 97 93 95 88 91 95 98
51 51 52 51 48 47 47 46 52 66 73 86 98 95 96 100 100 100 100 100 98 98 91 88 93 96 100
50 50 51 51 51 49 47 48 59 76 99 98 97 97 95 100 100 99 100 100 99 98 95 99 100 95 95
54 54 55 55 55 56 55 60 66 78 93 98 93 98 99 100 100 99 100 99 100 100 98 94 99 93 95
58 61 63 63 62 66 67 73 85 94 90 94 100 100 100 99 99 100 100 99 100 99 97 96 99 100 99
65 66 69 73 70 69 75 78 79 93 99 99 100 100 100 100 100 100 100 99 96 96 96 99 93 94 100
67 70 73 77 78 74 76 80 80 90 100 89 95 99 100 100 100 100 100 100 98 96 95 96 98 93 90
68 70 83 90 86 78 77 76 76 90 100 98 97 99 99 100 100 100 100 100 99 99 97 91 92 82 75
74 77 84 92 94 86 80 77 76 85 99 99 99 98 99 99 99 100 99 100 99 99 98 95 97 71 38
78 76 78 85 91 87 82 74 64 72 90 99 99 99 98 99 99 99 98 99 99 98 96 99 72 29 20
80 79 81 85 82 77 67 58 47 35 38 65 97 100 100 98 93 92 83 67 77 96 98 87 40 28 37
80 83 87 87 77 49 28 18 14 13 13 14 18 42 84 93 92 87 70 39 26 25 33 47 38 38 52
83 84 88 88 59 33 21 15 12 12 13 14 17 19 20 23 30 31 36 31 26 21 27 38 41 41 33
86 86 87 88 69 39 23 15 13 15 17 16 17 19 21 18 20 20 22 30 28 33 32 35 46 48 39
94 88 88 86 88 75 40 19 17 16 17 17 20 20 19 18 16 17 22 23 24 29 33 40 46 46 45
100 96 95 96 89 89 88 43 19 18 17 21 21 20 21 19 18 16 17 20 23 28 38 37 40 35 37
99 99 100 100 91 89 91 88 40 19 19 20 22 23 24 22 23 21 21 20 23 22 23 36 34 37 42

GFSFLT2_850_rhum_129.txt.gz
RH
93 99 88 66 54 52 50 46 45 46 49 61 94 90 97 92 95 99 99 92 97 95 91 88 80 87 97
68 63 52 50 50 50 48 46 44 44 47 66 73 94 98 93 99 99 100 99 99 100 96 89 78 78 91
50 49 49 54 55 52 51 50 49 48 56 68 95 95 89 89 94 99 100 100 100 100 98 95 93 83 90
51 54 54 52 53 54 56 56 53 55 66 74 98 99 97 100 100 100 100 100 99 100 100 100 100 94 91
51 53 56 61 61 60 59 60 62 64 68 98 99 100 99 97 99 100 99 100 100 100 100 99 99 94 87
54 60 63 62 62 69 71 66 64 71 71 84 95 99 98 100 100 99 99 100 99 100 100 97 96 89 85
60 62 64 66 72 80 80 74 72 77 72 71 86 94 98 100 100 100 99 100 100 100 100 99 98 92 90
65 67 69 70 76 82 84 80 76 77 83 75 79 94 98 98 99 99 98 99 99 100 99 97 99 95 96
71 74 75 76 79 84 85 81 76 73 82 92 94 99 99 100 100 100 100 99 100 100 99 100 98 95 95
78 80 78 77 80 83 84 83 74 63 76 69 80 95 92 94 99 98 100 100 99 99 99 94 99 99 99
83 84 79 80 84 76 65 55 42 30 26 25 26 23 60 88 90 88 90 90 82 76 85 95 100 99 73
87 85 81 84 88 82 56 35 22 17 14 13 12 13 16 18 24 47 75 79 69 42 36 45 53 61 57
92 85 82 85 86 72 44 29 19 14 13 12 14 14 15 15 16 16 18 30 32 26 21 21 31 50 53
95 90 85 86 85 86 80 46 24 16 16 17 18 18 16 14 16 13 18 23 24 28 30 26 28 38 49
98 96 91 88 87 87 87 86 59 21 18 19 20 20 19 16 14 16 16 16 20 26 24 22 23 40 47
100 100 96 94 97 97 90 91 90 64 21 19 19 19 20 19 20 18 18 17 19 21 24 24 25 41 35
100 100 100 100 100 100 98 94 92 92 46 23 20 20 22 20 23 23 23 23 22 23 22 20 22 34 41

GFSFLT2_850_rhum_132.txt.gz
RH
88 97 82 77 63 46 46 45 46 45 44 44 45 45 52 84 95 96 99 89 98 96 94 84 81 80 83
76 77 68 51 47 45 46 44 45 46 44 45 50 68 82 98 97 93 99 83 89 100 96 98 91 78 78
76 61 50 45 45 46 45 47 51 50 48 48 58 77 90 96 94 94 100 100 98 100 100 99 98 94 83
59 50 48 45 47 50 51 55 58 57 55 54 55 75 100 96 90 91 93 98 100 100 100 99 98 98 100
58 50 45 49 53 54 57 59 61 61 61 62 68 98 98 99 100 99 100 100 99 100 100 100 100 100 100
52 49 53 58 59 59 59 62 64 63 62 66 71 92 98 99 96 100 100 100 100 99 100 100 100 100 92
54 55 59 62 62 61 59 68 69 64 61 63 73 84 97 99 99 99 100 100 100 99 100 100 100 98 98
58 61 64 64 63 63 64 72 71 70 67 66 72 77 94 98 97 99 99 100 100 100 100 100 100 98 99
64 65 65 67 69 68 73 80 79 74 70 72 78 76 82 94 98 100 100 100 99 99 100 99 99 98 99
67 67 72 75 75 74 78 81 80 75 70 72 57 46 80 90 98 99 98 98 100 99 99 100 100 99 97
69 72 79 80 78 78 76 72 68 55 42 30 22 16 14 55 88 90 88 89 93 92 88 93 99 98 99
75 82 86 81 80 80 81 72 56 41 29 19 16 14 13 12 16 21 60 86 86 84 82 79 76 80 95
83 86 88 83 83 82 80 56 35 25 18 15 14 14 14 13 14 14 15 19 22 26 35 30 25 40 57
90 94 91 85 84 83 85 83 68 36 19 16 17 17 15 14 14 13 18 18 19 19 22 20 22 26 35
90 88 93 91 87 86 84 85 87 86 39 20 19 20 21 18 15 17 18 16 17 18 18 18 18 21 27
95 97 98 96 92 90 90 90 88 93 88 34 20 21 21 18 17 20 20 18 17 16 16 17 17 26 32
99 95 95 93 99 97 99 98 96 97 98 86 31 20 18 20 21 22 26 24 23 21 22 20 15 29 31

GFSFLT2_850_rhum_135.txt.gz
RH
68 70 83 92 85 82 70 46 42 43 45 42 39 39 42 50 65 78 81 81 88 85 90 75 87 76 73
78 84 93 90 91 70 53 48 43 42 41 45 44 43 47 67 63 79 91 100 96 88 87 88 93 86 78
90 96 98 97 85 55 54 47 45 45 47 52 50 47 49 66 91 95 89 96 91 98 100 96 98 99 87
96 98 93 72 56 55 53 47 49 52 55 55 52 49 50 75 84 90 86 84 97 96 95 100 100 97 98
97 91 75 70 64 53 50 50 49 53 56 54 53 55 59 80 99 92 96 98 100 100 100 100 100 97 100
98 85 74 57 50 51 49 51 50 53 58 57 55 58 71 86 98 100 98 99 100 99 99 98 100 100 99
95 75 67 50 52 51 53 52 55 62 63 59 58 65 75 84 96 95 95 100 100 100 100 100 100 100 99
85 75 58 54 57 58 59 61 65 70 67 64 64 68 68 72 90 97 99 100 100 100 99 99 99 99 100
72 66 58 59 62 64 66 66 69 71 68 66 64 70 70 75 92 96 96 98 100 99 100 100 100 100 99
71 65 61 63 65 68 70 69 72 74 69 68 69 65 52 70 87 98 93 98 100 100 100 100 100 99 99
64 66 69 70 74 74 71 71 73 76 68 64 55 34 25 25 81 91 93 91 94 98 100 100 100 100 99
70 73 74 75 79 77 75 76 74 62 47 34 30 22 16 14 13 14 19 60 86 88 91 91 87 86 82
74 77 83 88 84 79 77 78 69 51 37 25 22 17 14 14 14 13 14 14 15 30 53 72 60 59 56
83 92 94 86 83 82 80 80 80 72 56 32 21 17 16 17 16 14 16 16 14 13 14 20 28 29 28
96 99 96 93 89 84 84 83 82 84 84 72 37 20 18 18 17 16 16 15 16 16 16 19 25 24 24
100 99 94 93 92 89 88 88 85 85 86 89 83 43 21 19 18 16 17 17 18 17 17 16 15 22 19
100 100 99 100 100 96 92 92 94 95 91 94 90 84 37 17 18 19 21 23 22 23 23 22 18 24 23